Weather History for Souda, Greece

Change the Weather History Date:

Saturday, February 16, 2013

  Actual Average Record
Temperature  
Mean Temperature 52 °F -  
Max Temperature 59 °F 61 °F 66 °F (1997)
Min Temperature 46 °F 47 °F 37 °F (2006)
Degree Days  
Heating Degree Days 12    
Growing Degree Days 2 (Base 50)    
Moisture  
Dew Point 45 °F    
Average Humidity 81    
Maximum Humidity 100    
Minimum Humidity 41    
Precipitation  
Precipitation 0.00 in 0.13 in - ()
Sea Level Pressure  
Sea Level Pressure 30.02 in    
Wind  
Wind Speed 5 mph ()    
Max Wind Speed 18 mph    
Max Gust Speed -    
Visibility 6.2 miles    
Events Rain    
Averages and records for this station are not official NWS values.
T = Trace of Precipitation, MM = Missing Value Source: Averaged Metar Reports

Daily Weather History Graph

Daily Weather History Graph

Search for Another Location

Airport:

Trip Planner

Search our weather history database for the weather conditions in past years. The results will help you decide how hot, cold, wet, or windy it might be!

Date:

Astronomy

Feb. 16, 2013 Rise Set
Actual Time 7:09 AM EET 6:06 PM EET
Civil Twilight 6:43 AM EET 6:32 PM EET
Nautical Twilight 6:13 AM EET 7:02 PM EET
Astronomical Twilight 5:43 AM EET 7:31 PM EET
Moon 10:24 AM EET (2/16) No Moon Set
Length of Visible Light 11h 49m
Length of Day
10h 57m
Waxing Crescent, 36% of the Moon is Illuminated
Feb 16
Waxing Crescent
Feb 17
First Quarter
Feb 25
Full
Mar 4
Last Quarter
Mar 11
New

Hourly Weather History & Observations

Time (EET) Temp. Windchill Dew Point Humidity Pressure Visibility Wind Dir Wind Speed Gust Speed Precip Events Conditions
12:20 AM 48.2 °F - 46.4 °F 93% 30.04 in 6.2 mi Calm Calm - N/A   Scattered Clouds
12:50 AM 48.2 °F - 46.4 °F 93% 30.04 in 6.2 mi West 4.6 mph - N/A   Scattered Clouds
1:20 AM 48.2 °F - 46.4 °F 93% 30.04 in 6.2 mi WNW 4.6 mph - N/A   Scattered Clouds
1:50 AM 46.4 °F - 46.4 °F 100% 30.04 in 6.2 mi Calm Calm - N/A   Mostly Cloudy
2:00 AM 47 °F - 46 °F 97% 30.05 in 6 mi Calm Calm - -   Mostly Cloudy
2:20 AM 46.4 °F - 46.4 °F 100% 30.04 in 6.2 mi Calm Calm - N/A   Mostly Cloudy
2:50 AM 46.4 °F - 46.4 °F 100% 30.04 in 6.2 mi Calm Calm - N/A   Mostly Cloudy
3:20 AM 46.4 °F - 46.4 °F 100% 30.04 in 6.2 mi Calm Calm - N/A   Mostly Cloudy
3:50 AM 46.4 °F - 46.4 °F 100% 30.04 in 6.2 mi Calm Calm - N/A   Mostly Cloudy
4:50 AM 48.2 °F - 46.4 °F 93% 30.04 in 6.2 mi Calm Calm - N/A   Scattered Clouds
5:20 AM 48.2 °F - 46.4 °F 93% 30.04 in 6.2 mi Calm Calm - N/A   Scattered Clouds
5:50 AM 48.2 °F - 46.4 °F 93% 30.04 in 5.0 mi WNW 11.5 mph - N/A Rain Light Rain
6:20 AM 48.2 °F - 46.4 °F 93% 30.04 in 6.2 mi West 4.6 mph - N/A   Scattered Clouds
6:50 AM 46.4 °F 44.3 °F 46.4 °F 100% 30.04 in 6.2 mi WNW 4.6 mph - N/A   Scattered Clouds
7:20 AM 46.4 °F 43.5 °F 46.4 °F 100% 30.04 in 6.2 mi WSW 5.8 mph - N/A   Scattered Clouds
7:50 AM 46.4 °F - 44.6 °F 93% 30.04 in 6.2 mi Calm Calm - N/A   Partly Cloudy
8:00 AM 46 °F - 44 °F 90% 30.06 in 6 mi Calm Calm - -   Partly Cloudy
8:20 AM 48.2 °F - 44.6 °F 87% 30.04 in 6.2 mi West 4.6 mph - N/A   Scattered Clouds
8:50 AM 51.8 °F - 46.4 °F 82% 30.04 in 6.2 mi West 9.2 mph - N/A   Partly Cloudy
9:20 AM 53.6 °F - 46.4 °F 77% 30.04 in 6.2 mi West 9.2 mph - N/A   Partly Cloudy
9:50 AM 55.4 °F - 44.6 °F 67% 30.04 in 6.2 mi West 11.5 mph - N/A   Partly Cloudy
10:20 AM 55.4 °F - 44.6 °F 67% 30.04 in 6.2 mi West 11.5 mph - N/A   Partly Cloudy
10:50 AM 55.4 °F - 42.8 °F 63% 30.04 in 6.2 mi WNW 11.5 mph - N/A   Scattered Clouds
11:20 AM 55.4 °F - 42.8 °F 63% 30.04 in 6.2 mi WNW 13.8 mph - N/A   Scattered Clouds
11:50 AM 57.2 °F - 46.4 °F 67% 30.04 in 6.2 mi NW 11.5 mph - N/A   Scattered Clouds
12:20 PM 57.2 °F - 46.4 °F 67% 30.04 in 6.2 mi WNW 13.8 mph - N/A   Scattered Clouds
12:50 PM 57.2 °F - 44.6 °F 63% 30.04 in 6.2 mi NW 13.8 mph - N/A   Scattered Clouds
1:20 PM 57.2 °F - 44.6 °F 63% 30.04 in 6.2 mi NW 16.1 mph - N/A   Scattered Clouds
1:50 PM 59.0 °F - 41.0 °F 51% 30.01 in 6.2 mi NW 16.1 mph - N/A   Scattered Clouds
2:00 PM 59 °F - 42 °F 41% 30.01 in 6 mi NW 16.1 mph - -   Partly Cloudy
2:20 PM 59.0 °F - 41.0 °F 51% 30.01 in 6.2 mi WNW 18.4 mph - N/A   Scattered Clouds
2:50 PM 57.2 °F - 41.0 °F 55% 30.01 in 6.2 mi West 18.4 mph - N/A   Mostly Cloudy
3:20 PM 57.2 °F - 41.0 °F 55% 30.01 in 6.2 mi West 18.4 mph - N/A   Mostly Cloudy
3:50 PM 55.4 °F - 44.6 °F 67% 30.01 in 6.2 mi West 18.4 mph - N/A   Mostly Cloudy
4:20 PM 55.4 °F - 44.6 °F 67% 30.01 in 6.2 mi West 11.5 mph - N/A   Mostly Cloudy
4:50 PM 53.6 °F - 44.6 °F 72% 30.01 in 6.2 mi West 9.2 mph - N/A   Mostly Cloudy
5:20 PM 53.6 °F - 44.6 °F 72% 30.01 in 6.2 mi West 6.9 mph - N/A   Mostly Cloudy
5:50 PM 53.6 °F - 46.4 °F 77% 30.01 in 6.2 mi SW 4.6 mph - N/A   Mostly Cloudy
6:20 PM 53.6 °F - 46.4 °F 77% 30.01 in 6.2 mi Calm Calm - N/A   Scattered Clouds
6:50 PM 51.8 °F - 46.4 °F 82% 30.01 in 6.2 mi Calm Calm - N/A   Mostly Cloudy
7:20 PM 51.8 °F - 46.4 °F 82% 30.01 in 6.2 mi Calm Calm - N/A   Mostly Cloudy
8:00 PM 51 °F - 47 °F 80% 30.02 in 6 mi Calm Calm - -   Scattered Clouds
8:50 PM 51.8 °F - 46.4 °F 82% 29.98 in 6.2 mi Calm Calm - N/A   Mostly Cloudy
9:20 PM 51.8 °F - 46.4 °F 82% 30.01 in 6.2 mi Calm Calm - N/A   Mostly Cloudy
9:50 PM 50.0 °F - 46.4 °F 87% 29.98 in 6.2 mi Calm Calm - N/A   Mostly Cloudy
10:20 PM 50.0 °F - 46.4 °F 87% 29.98 in 6.2 mi Calm Calm - N/A   Mostly Cloudy
10:50 PM 50.0 °F - 48.2 °F 94% 29.98 in 6.2 mi Calm Calm - N/A   Mostly Cloudy
11:20 PM 50.0 °F - 48.2 °F 94% 29.98 in 6.2 mi Calm Calm - N/A   Mostly Cloudy
11:50 PM 50.0 °F - 48.2 °F 94% 29.98 in 6.2 mi WNW 4.6 mph - N/A   Mostly Cloudy